KLM1411 EHAM-LFPG

Flight info

Callsign KLM1411
Flight time 0h 57m
Altitude 29000
Route WOODY N872 DENOX DCT SISGA DCT DELOM DCT MOPIL
Aircraft B738/M-SDE2E3FGHIRWXY/LB1

Departure

Time 2026-05-07 17:37
Airport Amsterdam Airport Schiphol (EHAM)

Arrival

Time 2026-05-07 18:35
Airport Charles de Gaulle International Airport (LFPG)
Time Latitude Longitude Altitude Speed Heading
2026-05-07 17:13 52.30624 4.76631 -3 ft 0 kts 238°
2026-05-07 17:23 52.30633 4.76653 -3 ft 3 kts 234°
2026-05-07 17:23 52.30646 4.76683 -3 ft 3 kts 243°
2026-05-07 17:23 52.30653 4.76710 -3 ft 3 kts 251°
2026-05-07 17:24 52.30658 4.76741 -3 ft 3 kts 286°
2026-05-07 17:24 52.30650 4.76757 -3 ft 3 kts 327°
2026-05-07 17:24 52.30633 4.76778 -3 ft 3 kts 310°
2026-05-07 17:24 52.30622 4.76802 -3 ft 0 kts 303°
2026-05-07 17:28 52.30628 4.76789 -3 ft 4 kts 307°
2026-05-07 17:28 52.30653 4.76754 -3 ft 5 kts 326°
2026-05-07 17:28 52.30686 4.76735 -3 ft 5 kts
2026-05-07 17:29 52.30714 4.76775 -3 ft 6 kts 72°
2026-05-07 17:29 52.30695 4.76833 -3 ft 7 kts 145°
2026-05-07 17:29 52.30660 4.76906 -3 ft 10 kts 103°
2026-05-07 17:29 52.30628 4.77002 -3 ft 10 kts 147°
2026-05-07 17:30 52.30562 4.77071 -3 ft 11 kts 148°
2026-05-07 17:30 52.30497 4.77043 -4 ft 11 kts 233°
2026-05-07 17:30 52.30454 4.76935 -4 ft 13 kts 238°
2026-05-07 17:30 52.30399 4.76791 -3 ft 17 kts 238°
2026-05-07 17:31 52.30324 4.76597 -3 ft 23 kts 238°
2026-05-07 17:31 52.30239 4.76375 -3 ft 23 kts 238°
2026-05-07 17:31 52.30156 4.76158 -3 ft 22 kts 238°
2026-05-07 17:31 52.30074 4.75947 -3 ft 22 kts 238°
2026-05-07 17:32 52.29996 4.75742 -3 ft 21 kts 238°
2026-05-07 17:32 52.29920 4.75542 -3 ft 20 kts 238°
2026-05-07 17:32 52.29849 4.75354 -3 ft 17 kts 242°
2026-05-07 17:32 52.29841 4.75202 -3 ft 14 kts 299°
2026-05-07 17:33 52.29909 4.75068 -3 ft 17 kts 311°
2026-05-07 17:33 52.29995 4.74909 -3 ft 20 kts 311°
2026-05-07 17:33 52.30095 4.74722 -3 ft 23 kts 311°
2026-05-07 17:33 52.30200 4.74527 -3 ft 23 kts 311°
2026-05-07 17:34 52.30302 4.74337 -3 ft 22 kts 311°
2026-05-07 17:34 52.30379 4.74196 -3 ft 16 kts 311°
2026-05-07 17:34 52.30423 4.74049 -3 ft 15 kts 257°
2026-05-07 17:34 52.30409 4.73884 -5 ft 15 kts 272°
2026-05-07 17:35 52.30433 4.73756 -6 ft 10 kts 346°
2026-05-07 17:35 52.30468 4.73759 -5 ft 0 kts
2026-05-07 17:36 52.30483 4.73760 -5 ft 8 kts
2026-05-07 17:37 52.30592 4.73769 -7 ft 28 kts
2026-05-07 17:37 52.31025 4.73810 -1 ft 96 kts
2026-05-07 17:37 52.31895 4.73896 6 ft 151 kts
2026-05-07 17:37 52.32945 4.73983 600 ft 150 kts
2026-05-07 17:38 52.33967 4.74109 1322 ft 148 kts
2026-05-07 17:38 52.35024 4.74463 1757 ft 169 kts 24°
2026-05-07 17:38 52.36090 4.75487 2252 ft 179 kts 41°
2026-05-07 17:38 52.36869 4.76888 3344 ft 155 kts 59°
2026-05-07 17:39 52.37330 4.78484 3988 ft 164 kts 74°
2026-05-07 17:39 52.37597 4.80522 4066 ft 202 kts 84°
2026-05-07 17:39 52.37671 4.82860 4590 ft 206 kts 94°
2026-05-07 17:39 52.37139 4.85111 4828 ft 226 kts 137°
2026-05-07 17:40 52.35720 4.86236 5237 ft 242 kts 175°
2026-05-07 17:40 52.34045 4.85649 5686 ft 255 kts 203°
2026-05-07 17:40 52.32300 4.84970 6289 ft 264 kts 181°
2026-05-07 17:40 52.30459 4.84948 7104 ft 265 kts 181°
2026-05-07 17:41 52.28629 4.84889 7919 ft 267 kts 181°
2026-05-07 17:41 52.26751 4.84832 8706 ft 272 kts 182°
2026-05-07 17:41 52.24826 4.84779 9365 ft 281 kts 181°
2026-05-07 17:41 52.22866 4.84734 10226 ft 283 kts 182°
2026-05-07 17:42 52.20847 4.84688 10641 ft 302 kts 181°
2026-05-07 17:42 52.18664 4.84640 10851 ft 325 kts 181°
2026-05-07 17:42 52.16366 4.84592 11480 ft 332 kts 182°
2026-05-07 17:42 52.14043 4.84545 12244 ft 337 kts 181°
2026-05-07 17:43 52.11681 4.84417 12950 ft 343 kts 187°
2026-05-07 17:43 52.09385 4.83472 13880 ft 341 kts 202°
2026-05-07 17:43 52.07178 4.81971 14604 ft 345 kts 204°
2026-05-07 17:43 52.04962 4.80400 15342 ft 350 kts 204°
2026-05-07 17:44 52.02715 4.78802 16091 ft 355 kts 205°
2026-05-07 17:44 52.00449 4.77202 16854 ft 358 kts 204°
2026-05-07 17:44 51.98140 4.75588 17607 ft 362 kts 204°
2026-05-07 17:44 51.95810 4.73973 18385 ft 366 kts 204°
2026-05-07 17:45 51.93453 4.72348 18972 ft 371 kts 204°
2026-05-07 17:45 51.91067 4.70710 19644 ft 374 kts 204°
2026-05-07 17:45 51.88664 4.69065 20335 ft 376 kts 204°
2026-05-07 17:45 51.86246 4.67413 21014 ft 379 kts 204°
2026-05-07 17:46 51.83839 4.65772 21633 ft 382 kts 204°
2026-05-07 17:46 51.81375 4.64094 22283 ft 385 kts 204°
2026-05-07 17:46 51.78893 4.62405 22908 ft 389 kts 204°
2026-05-07 17:46 51.76395 4.60707 23528 ft 391 kts 204°
2026-05-07 17:47 51.73883 4.59003 24212 ft 389 kts 204°
2026-05-07 17:47 51.71368 4.57446 24939 ft 386 kts 197°
2026-05-07 17:47 51.68758 4.56523 25671 ft 384 kts 193°
2026-05-07 17:47 51.66135 4.55745 26327 ft 383 kts 192°
2026-05-07 17:48 51.63509 4.54990 26948 ft 383 kts 192°
2026-05-07 17:48 51.60900 4.54236 27608 ft 381 kts 192°
2026-05-07 17:48 51.58295 4.53471 28302 ft 378 kts 192°
2026-05-07 17:48 51.55711 4.52701 28948 ft 377 kts 193°
2026-05-07 17:49 51.50550 4.51139 29076 ft 379 kts 193°
2026-05-07 17:49 51.45401 4.49570 29078 ft 377 kts 193°
2026-05-07 17:50 51.40239 4.47994 29082 ft 378 kts 193°
2026-05-07 17:50 51.35054 4.46415 29084 ft 379 kts 193°
2026-05-07 17:51 51.29867 4.44840 29075 ft 380 kts 193°
2026-05-07 17:51 51.24667 4.43265 29062 ft 379 kts 193°
2026-05-07 17:52 51.19527 4.41712 29073 ft 378 kts 193°
2026-05-07 17:52 51.14334 4.40146 29077 ft 377 kts 193°
2026-05-07 17:53 51.09224 4.38608 29077 ft 376 kts 193°
2026-05-07 17:53 51.04076 4.37062 29072 ft 377 kts 193°
2026-05-07 17:54 50.98923 4.35519 29078 ft 377 kts 193°
2026-05-07 17:54 50.93768 4.33978 29076 ft 377 kts 193°
2026-05-07 17:55 50.88611 4.32440 29078 ft 377 kts 193°
2026-05-07 17:55 50.83445 4.30903 29074 ft 377 kts 193°
2026-05-07 17:56 50.78287 4.29372 29059 ft 378 kts 193°
2026-05-07 17:56 50.73124 4.27843 29075 ft 378 kts 193°
2026-05-07 17:57 50.68821 4.26571 29070 ft 379 kts 193°
2026-05-07 17:57 50.62795 4.24794 29067 ft 379 kts 193°
2026-05-07 17:58 50.57611 4.23268 29069 ft 380 kts 193°
2026-05-07 17:58 50.52418 4.21744 28714 ft 378 kts 193°
2026-05-07 17:59 50.49841 4.20990 28434 ft 374 kts 193°
2026-05-07 17:59 50.47299 4.20247 28164 ft 369 kts 193°
2026-05-07 17:59 50.44787 4.19513 27889 ft 367 kts 193°
2026-05-07 17:59 50.42278 4.18780 27621 ft 365 kts 193°
2026-05-07 18:00 50.39783 4.18051 27353 ft 364 kts 193°
2026-05-07 18:00 50.37301 4.17328 27094 ft 362 kts 193°
2026-05-07 18:00 50.34859 4.16616 26832 ft 361 kts 193°
2026-05-07 18:00 50.32390 4.15898 26562 ft 360 kts 193°
2026-05-07 18:01 50.29933 4.15183 26309 ft 359 kts 193°
2026-05-07 18:01 50.27476 4.14470 26060 ft 359 kts 193°
2026-05-07 18:01 50.25025 4.13759 25805 ft 358 kts 193°
2026-05-07 18:01 50.22579 4.13050 25553 ft 357 kts 193°
2026-05-07 18:02 50.17705 4.11640 25058 ft 356 kts 193°
2026-05-07 18:02 50.15268 4.10937 24810 ft 355 kts 192°
2026-05-07 18:02 50.12809 4.10435 24570 ft 356 kts 187°
2026-05-07 18:03 50.10341 4.10226 24324 ft 356 kts 185°
2026-05-07 18:03 50.07873 4.10101 24092 ft 355 kts 184°
2026-05-07 18:03 50.05408 4.09984 23857 ft 353 kts 184°
2026-05-07 18:03 50.02958 4.09852 23617 ft 352 kts 184°
2026-05-07 18:04 50.00547 4.09704 23343 ft 351 kts 185°
2026-05-07 18:04 49.98082 4.09539 23061 ft 349 kts 185°
2026-05-07 18:04 49.95699 4.09372 22790 ft 347 kts 185°
2026-05-07 18:04 49.93282 4.09197 22519 ft 346 kts 185°
2026-05-07 18:05 49.90883 4.09021 22242 ft 344 kts 185°
2026-05-07 18:05 49.88496 4.08845 21969 ft 343 kts 185°
2026-05-07 18:05 49.86123 4.08669 21705 ft 341 kts 185°
2026-05-07 18:05 49.83750 4.08494 21440 ft 340 kts 185°
2026-05-07 18:06 49.81392 4.08320 21173 ft 338 kts 185°
2026-05-07 18:06 49.79047 4.08147 20921 ft 337 kts 185°
2026-05-07 18:06 49.76707 4.07974 20672 ft 336 kts 185°
2026-05-07 18:06 49.74379 4.07803 20414 ft 335 kts 185°
2026-05-07 18:07 49.72055 4.07631 20160 ft 334 kts 185°
2026-05-07 18:07 49.69741 4.07461 19911 ft 333 kts 185°
2026-05-07 18:07 49.67437 4.07292 19660 ft 332 kts 185°
2026-05-07 18:07 49.65160 4.07125 19415 ft 331 kts 185°
2026-05-07 18:08 49.62870 4.06957 19174 ft 330 kts 186°
2026-05-07 18:08 49.60651 4.06262 18901 ft 324 kts 207°
2026-05-07 18:08 49.58807 4.04350 18687 ft 319 kts 226°
2026-05-07 18:08 49.57452 4.01680 18466 ft 316 kts 237°
2026-05-07 18:09 49.56261 3.98838 18211 ft 315 kts 238°
2026-05-07 18:09 49.55093 3.95983 17930 ft 315 kts 238°
2026-05-07 18:09 49.53922 3.93138 17659 ft 314 kts 238°
2026-05-07 18:09 49.52745 3.90302 17391 ft 313 kts 238°
2026-05-07 18:10 49.51565 3.87485 17126 ft 313 kts 238°
2026-05-07 18:10 49.50383 3.84681 16862 ft 312 kts 238°
2026-05-07 18:10 49.49206 3.81898 16603 ft 311 kts 237°
2026-05-07 18:10 49.48044 3.79155 16347 ft 310 kts 238°
2026-05-07 18:11 49.47120 3.76187 16064 ft 308 kts 255°
2026-05-07 18:11 49.46779 3.74037 15919 ft 306 kts 256°
2026-05-07 18:11 49.46116 3.69832 15587 ft 305 kts 256°
2026-05-07 18:11 49.45595 3.66677 15323 ft 304 kts 255°
2026-05-07 18:12 49.45069 3.63541 15076 ft 303 kts 255°
2026-05-07 18:12 49.44542 3.60422 14834 ft 302 kts 255°
2026-05-07 18:12 49.44013 3.57303 14587 ft 301 kts 255°
2026-05-07 18:12 49.43486 3.54200 14347 ft 300 kts 255°
2026-05-07 18:13 49.42958 3.51096 14106 ft 300 kts 255°
2026-05-07 18:13 49.42436 3.48041 14092 ft 292 kts 255°
2026-05-07 18:13 49.41923 3.45061 14079 ft 292 kts 253°
2026-05-07 18:13 49.41244 3.42069 14083 ft 295 kts 248°
2026-05-07 18:14 49.40466 3.39180 14092 ft 297 kts 247°
2026-05-07 18:14 49.39659 3.36273 14092 ft 297 kts 247°
2026-05-07 18:14 49.38852 3.33363 14090 ft 296 kts 247°
2026-05-07 18:14 49.38051 3.30454 14064 ft 296 kts 247°
2026-05-07 18:15 49.37244 3.27503 13857 ft 302 kts 247°
2026-05-07 18:15 49.36441 3.24547 13641 ft 299 kts 247°
2026-05-07 18:15 49.35646 3.21615 13441 ft 297 kts 247°
2026-05-07 18:15 49.34855 3.18694 13241 ft 295 kts 247°
2026-05-07 18:16 49.34071 3.15792 13025 ft 293 kts 247°
2026-05-07 18:16 49.33291 3.12910 12850 ft 292 kts 247°
2026-05-07 18:16 49.32515 3.10042 12655 ft 291 kts 247°
2026-05-07 18:16 49.31754 3.07231 12473 ft 290 kts 247°
2026-05-07 18:17 49.30980 3.04377 12279 ft 289 kts 247°
2026-05-07 18:17 49.30212 3.01544 12091 ft 287 kts 247°
2026-05-07 18:17 49.29456 2.98761 11897 ft 280 kts 247°
2026-05-07 18:17 49.28714 2.96034 11717 ft 274 kts 247°
2026-05-07 18:18 49.27988 2.93367 11538 ft 268 kts 247°
2026-05-07 18:18 49.27278 2.90761 11366 ft 263 kts 247°
2026-05-07 18:18 49.26582 2.88209 11189 ft 257 kts 247°
2026-05-07 18:18 49.25900 2.85712 11031 ft 252 kts 247°
2026-05-07 18:19 49.25225 2.83245 10861 ft 250 kts 246°
2026-05-07 18:19 49.24555 2.80796 10712 ft 249 kts 246°
2026-05-07 18:19 49.23893 2.78382 10553 ft 249 kts 246°
2026-05-07 18:19 49.23216 2.75911 10389 ft 249 kts 246°
2026-05-07 18:20 49.22554 2.73501 10230 ft 249 kts 246°
2026-05-07 18:20 49.21885 2.71064 10073 ft 249 kts 246°
2026-05-07 18:20 49.21211 2.68614 9902 ft 249 kts 246°
2026-05-07 18:20 49.20541 2.66177 9723 ft 249 kts 246°
2026-05-07 18:21 49.19866 2.63732 9558 ft 249 kts 246°
2026-05-07 18:21 49.19193 2.61293 9377 ft 249 kts 246°
2026-05-07 18:21 49.18747 2.59682 9255 ft 249 kts 246°
2026-05-07 18:21 49.18119 2.57217 9060 ft 249 kts 256°
2026-05-07 18:22 49.17975 2.54583 8906 ft 248 kts 268°
2026-05-07 18:22 49.17961 2.52842 8791 ft 248 kts 268°
2026-05-07 18:22 49.17904 2.48477 8514 ft 246 kts 268°
2026-05-07 18:22 49.17877 2.45876 8352 ft 245 kts 268°
2026-05-07 18:23 49.17842 2.44114 8240 ft 244 kts 268°
2026-05-07 18:23 49.17817 2.41536 8092 ft 250 kts 269°
2026-05-07 18:23 49.17798 2.38819 7929 ft 261 kts 269°
2026-05-07 18:23 49.17778 2.36017 7763 ft 266 kts 269°
2026-05-07 18:24 49.17759 2.33179 7591 ft 267 kts 269°
2026-05-07 18:24 49.17738 2.30340 7469 ft 268 kts 269°
2026-05-07 18:24 49.17716 2.27496 7355 ft 266 kts 269°
2026-05-07 18:24 49.17609 2.24699 7253 ft 261 kts 262°
2026-05-07 18:25 49.17357 2.21968 7167 ft 258 kts 261°
2026-05-07 18:25 49.17078 2.19262 7091 ft 258 kts 261°
2026-05-07 18:25 49.16779 2.16565 7005 ft 258 kts 261°
2026-05-07 18:25 49.16476 2.13863 6935 ft 257 kts 261°
2026-05-07 18:26 49.16158 2.11192 6920 ft 254 kts 256°
2026-05-07 18:26 49.15352 2.08852 6894 ft 257 kts 227°
2026-05-07 18:26 49.13852 2.07337 6763 ft 265 kts 199°
2026-05-07 18:26 49.12016 2.06979 6656 ft 267 kts 181°
2026-05-07 18:27 49.10145 2.07028 6502 ft 270 kts 179°
2026-05-07 18:27 49.08278 2.07116 6350 ft 266 kts 179°
2026-05-07 18:27 49.06455 2.07212 6213 ft 258 kts 179°
2026-05-07 18:27 49.04688 2.07310 6065 ft 251 kts 178°
2026-05-07 18:28 49.02968 2.07518 5945 ft 244 kts 175°
2026-05-07 18:28 49.01297 2.07784 5820 ft 237 kts 173°
2026-05-07 18:28 48.99800 2.08609 5695 ft 231 kts 143°
2026-05-07 18:28 48.98778 2.10415 5588 ft 223 kts 118°
2026-05-07 18:29 48.98157 2.12552 5456 ft 219 kts 111°
2026-05-07 18:29 48.97580 2.14699 5338 ft 219 kts 112°
2026-05-07 18:29 48.97100 2.16874 5306 ft 216 kts 94°
2026-05-07 18:29 48.97312 2.19109 5197 ft 219 kts 76°
2026-05-07 18:30 48.97531 2.21454 4929 ft 225 kts 86°
2026-05-07 18:30 48.97631 2.23852 4614 ft 228 kts 86°
2026-05-07 18:30 48.97737 2.26265 4302 ft 230 kts 86°
2026-05-07 18:30 48.97854 2.28699 3985 ft 232 kts 85°
2026-05-07 18:31 48.97978 2.31154 3669 ft 234 kts 85°
2026-05-07 18:31 48.98102 2.33608 3374 ft 231 kts 85°
2026-05-07 18:31 48.98225 2.36022 3048 ft 226 kts 85°
2026-05-07 18:31 48.98344 2.38353 2742 ft 221 kts 85°
2026-05-07 18:32 48.98461 2.40643 2455 ft 212 kts 85°
2026-05-07 18:32 48.98572 2.42806 2164 ft 198 kts 84°
2026-05-07 18:32 48.98677 2.44833 1911 ft 185 kts 84°
2026-05-07 18:32 48.98775 2.46723 1662 ft 174 kts 85°
2026-05-07 18:33 48.98868 2.48491 1446 ft 162 kts 85°
2026-05-07 18:33 48.98949 2.50119 1235 ft 148 kts 85°
2026-05-07 18:33 48.99034 2.51633 1001 ft 141 kts 84°
2026-05-07 18:33 48.99113 2.53134 823 ft 143 kts 85°
2026-05-07 18:34 48.99191 2.54649 660 ft 142 kts 85°
2026-05-07 18:34 48.99267 2.56114 473 ft 140 kts 84°
2026-05-07 18:34 48.99346 2.57551 354 ft 128 kts 84°
2026-05-07 18:34 48.99403 2.58654 351 ft 74 kts 85°
2026-05-07 18:35 48.99436 2.59114 350 ft 19 kts 75°
2026-05-07 18:35 48.99481 2.59297 355 ft 18 kts 66°
2026-05-07 18:35 48.99532 2.59470 360 ft 18 kts 66°
2026-05-07 18:35 48.99584 2.59636 355 ft 17 kts 56°
2026-05-07 18:36 48.99689 2.59687 353 ft 16 kts 356°
2026-05-07 18:36 48.99801 2.59673 356 ft 17 kts 355°
2026-05-07 18:36 48.99914 2.59659 361 ft 16 kts 355°
2026-05-07 18:36 49.00022 2.59647 357 ft 15 kts 355°
2026-05-07 18:37 49.00135 2.59632 353 ft 17 kts 355°
2026-05-07 18:37 49.00262 2.59618 353 ft 19 kts 356°
2026-05-07 18:37 49.00403 2.59601 358 ft 21 kts 355°
2026-05-07 18:37 49.00557 2.59581 356 ft 23 kts 355°
2026-05-07 18:38 49.00721 2.59561 353 ft 24 kts 355°
2026-05-07 18:38 49.00879 2.59541 353 ft 23 kts 355°
2026-05-07 18:38 49.00993 2.59498 360 ft 14 kts 306°
2026-05-07 18:38 49.00998 2.59337 357 ft 17 kts 267°
2026-05-07 18:39 49.00985 2.59133 353 ft 21 kts 264°
2026-05-07 18:39 49.00952 2.58902 358 ft 22 kts 262°
2026-05-07 18:39 49.00938 2.58672 358 ft 22 kts 265°
2026-05-07 18:39 49.00926 2.58442 360 ft 21 kts 265°
2026-05-07 18:40 49.00914 2.58224 353 ft 21 kts 265°
2026-05-07 18:40 49.00903 2.58010 353 ft 20 kts 265°
2026-05-07 18:40 49.00892 2.57802 360 ft 19 kts 265°
2026-05-07 18:40 49.00881 2.57602 356 ft 19 kts 265°
2026-05-07 18:41 49.00870 2.57408 356 ft 18 kts 265°
2026-05-07 18:41 49.00858 2.57257 353 ft 9 kts 250°
2026-05-07 18:41 49.00806 2.57214 353 ft 9 kts 178°
2026-05-07 18:41 49.00742 2.57224 353 ft 10 kts 175°
2026-05-07 18:42 49.00700 2.57191 399 ft 21 kts 96°
2026-05-07 18:42 49.00704 2.57178 354 ft 0 kts 58°
2026-05-07 18:42 49.00705 2.57180 353 ft 1 kts 59°
2026-05-07 18:42 49.00703 2.57207 355 ft 5 kts 114°
2026-05-07 18:43 49.00687 2.57214 399 ft 15 kts 239°
2026-05-07 18:43 49.00684 2.57176 355 ft 3 kts 254°
2026-05-07 18:43 49.00683 2.57175 355 ft 0 kts 255°